Theta_e
335 334 333 331 329 329 327 323 322 321 320 316 314 312 309 307 307 306 305 305 305 305 305 306 306 307 308 307 307 306 305 304 305 305 306 306 307 308 307 307 307 307 306
334 332 331 330 328 328 324 322 320 316 314 313 310 308 306 306 305 305 304 303 303 304 304 305 306 306 307 307 306 306 305 305 305 306 306 306 307 307 306 305 305 305 306
331 330 328 326 324 320 319 315 313 312 311 308 307 306 305 304 303 303 302 302 302 302 303 303 303 303 304 306 305 305 304 304 305 305 306 305 306 305 304 304 304 304 304
324 321 319 317 317 316 313 310 309 308 307 307 306 305 304 303 302 301 301 301 301 301 301 301 301 301 302 304 305 304 303 304 304 305 306 306 306 304 303 303 303 303 303
313 310 309 309 310 309 308 308 307 307 307 306 305 304 303 302 300 301 301 300 300 300 300 299 299 299 300 300 302 302 302 303 303 304 304 304 304 301 301 300 300 300 301
307 307 308 307 307 307 306 305 305 304 304 304 304 303 301 298 297 298 297 298 298 298 298 298 298 298 299 299 299 298 298 300 301 302 302 302 301 300 299 298 298 299 301
312 309 308 306 304 303 303 303 302 302 302 302 302 300 299 296 296 296 296 296 297 297 297 297 298 298 298 299 299 299 300 300 299 299 300 300 298 298 297 297 297 298 298
305 305 304 303 302 302 301 301 301 301 301 300 298 298 297 295 293 294 295 296 297 297 296 296 297 298 297 295 297 299 301 301 301 299 298 298 296 296 296 296 296 297 298
303 302 301 300 300 300 299 299 300 299 299 297 297 296 295 295 292 294 295 296 297 296 297 297 296 296 294 294 296 299 299 300 300 297 297 296 295 295 295 296 296 297 298
300 299 300 300 298 297 296 297 296 296 296 296 295 294 293 294 293 294 294 296 296 297 297 297 295 293 292 293 295 297 298 298 297 298 298 296 294 294 295 295 295 296 297
298 299 299 299 297 295 294 294 295 295 295 295 294 294 294 292 293 291 291 294 294 296 296 296 295 291 291 292 293 295 294 293 296 296 295 294 293 293 294 294 294 294 295
297 295 295 295 294 294 294 294 294 295 295 295 295 295 294 293 292 292 291 291 292 295 295 294 293 291 291 292 293 291 292 294 295 294 293 292 291 291 292 292 292 294 295
296 294 293 293 294 294 294 294 294 294 294 294 295 294 294 293 293 292 292 292 292 293 293 292 291 291 291 293 291 291 293 293 292 291 290 289 289 289 290 291 292 293 296
294 293 294 295 294 294 294 293 293 293 294 294 293 293 293 293 292 292 292 293 292 293 292 293 291 292 291 291 292 292 291 289 288 288 288 288 288 289 290 291 291 293 295
295 295 295 295 295 294 293 292 292 290 290 291 291 291 291 291 289 289 290 290 290 290 292 292 292 292 292 292 292 290 287 287 286 286 287 287 287 288 289 290 291 293 295
296 295 295 294 294 294 293 291 288 287 287 287 288 289 290 288 288 289 288 287 287 289 291 290 290 290 290 290 289 286 285 285 285 285 286 286 287 288 289 290 292 294 296
295 294 293 293 293 293 292 292 292 288 287 288 288 287 287 287 288 287 287 288 287 289 289 289 289 288 288 287 285 285 284 284 284 285 285 286 286 287 289 290 293 295 296
292 292 292 292 292 291 291 291 290 290 290 289 288 287 287 286 286 286 287 289 289 288 288 288 287 286 286 285 285 284 283 284 284 284 285 285 286 287 288 291 293 296 298
293 292 292 291 291 290 290 290 289 289 289 289 289 288 286 286 286 286 286 287 288 287 287 287 286 285 285 284 284 283 283 283 283 284 284 285 286 287 289 291 293 296 300
292 291 292 291 291 290 290 289 289 288 288 288 288 287 287 288 287 287 287 286 286 286 286 286 285 285 284 284 283 283 283 284 284 283 284 285 286 287 289 291 294 296 302
293 292 291 291 290 290 289 288 288 288 288 288 287 284 284 287 286 286 286 286 285 285 285 285 285 284 284 283 283 282 282 283 284 283 283 285 286 288 290 292 295 299 304
293 292 291 290 289 289 288 288 287 287 287 287 286 285 284 285 285 285 285 285 285 285 284 284 284 284 283 283 282 282 282 282 282 283 283 285 287 289 291 293 296 302 301
291 290 290 289 288 287 287 287 287 287 287 286 286 285 285 285 285 285 285 284 284 284 284 284 284 283 283 283 282 282 281 281 282 283 284 285 287 288 290 292 295 299 303
290 290 289 289 288 288 287 287 286 285 286 285 285 285 285 284 284 284 284 284 284 284 284 284 283 283 283 282 282 282 281 281 282 284 285 285 286 287 289 291 292 296 297
290 290 289 288 288 287 287 286 286 286 285 285 284 284 284 284 284 284 283 283 284 284 283 283 283 283 282 281 281 280 281 283 282 283 285 286 286 287 288 289 290 293 294
289 288 288 287 287 287 287 286 285 285 285 284 284 284 283 283 283 283 283 283 283 283 283 283 282 282 282 281 280 280 281 282 283 283 285 285 285 286 286 287 289 291 291
Wind_Speed
21 24 24 22 22 26 25 23 23 23 23 21 16 12 7 4 4 3 5 7 8 6 5 5 5 7 7 9 10 11 13 14 12 19 23 25 25 23 26 24 22 21 18
22 21 22 23 25 25 24 23 22 22 19 15 12 8 6 5 6 6 5 7 8 6 7 7 8 8 9 10 11 13 13 15 15 19 23 25 25 24 24 25 22 18 20
16 19 21 23 26 26 25 24 20 17 16 12 9 8 6 6 5 5 6 8 8 9 9 8 9 11 11 12 12 12 13 15 17 20 23 23 24 24 24 23 21 21 19
16 18 20 26 30 29 26 21 17 14 13 12 9 8 7 7 4 7 8 10 11 10 8 9 9 11 12 12 15 13 12 16 17 19 22 23 23 24 20 22 26 22 23
25 26 23 16 34 29 24 21 16 14 12 11 9 9 7 6 8 10 10 11 11 11 10 10 10 12 11 10 10 13 15 17 16 17 20 22 23 24 22 23 23 26 23
30 31 30 24 26 27 22 19 16 14 13 11 10 8 9 9 10 11 11 9 11 12 12 11 12 12 12 13 12 13 14 14 14 15 19 19 24 23 22 22 22 21 7
38 28 27 23 16 19 17 17 16 13 12 12 12 9 8 8 10 13 15 11 10 10 11 11 12 10 12 15 16 16 15 15 12 12 16 21 24 24 25 25 22 21 21
31 31 22 20 19 17 16 18 15 11 11 12 10 9 6 9 13 15 14 11 10 10 10 10 11 12 11 17 19 19 17 16 14 14 18 22 25 28 27 27 27 26 23
32 21 18 15 18 16 15 15 13 10 10 10 10 8 9 10 15 17 17 12 12 12 9 9 10 14 18 19 17 19 21 18 18 22 23 26 26 24 21 24 18 17 14
24 21 21 22 20 18 13 12 9 7 10 11 11 12 14 13 17 18 17 12 13 13 12 13 14 20 21 19 16 16 20 22 27 28 25 26 26 24 19 17 20 17 14
25 25 24 21 21 14 13 10 10 11 12 13 13 13 14 15 15 21 21 15 17 15 15 16 16 22 19 17 15 14 19 23 23 22 25 24 24 25 22 22 20 20 18
25 21 21 18 16 14 14 14 12 12 14 13 12 11 11 12 16 17 21 22 20 15 17 18 18 21 21 19 17 20 22 20 20 23 22 24 26 27 27 27 24 20 18
27 25 18 17 16 15 15 14 14 14 13 11 10 11 10 11 12 19 21 23 22 18 17 18 20 21 21 18 23 25 21 21 23 24 24 25 27 30 28 27 23 19 15
27 23 17 15 17 16 15 14 16 14 12 12 11 10 10 12 17 18 18 19 20 19 18 15 17 19 19 19 22 23 22 23 24 24 26 28 28 26 26 24 23 19 16
19 19 16 14 15 16 17 15 16 17 14 10 9 10 13 15 17 16 16 17 18 17 15 15 19 21 22 24 24 25 28 29 28 27 27 27 26 25 24 24 20 18 9
18 16 14 14 13 13 14 16 16 14 13 13 14 14 11 14 15 15 14 16 19 18 15 20 22 22 24 26 26 29 28 29 29 29 27 26 25 25 24 25 19 14 12
17 16 15 14 13 13 11 9 9 9 14 16 16 15 14 14 16 16 15 16 23 21 22 22 21 22 23 25 25 27 29 31 30 27 27 26 25 24 24 22 18 14 11
18 18 16 15 13 12 11 10 9 10 10 12 14 15 13 13 15 19 22 18 21 24 22 21 22 21 22 26 25 30 32 31 29 28 26 26 25 24 24 21 19 15 12
15 15 15 13 12 12 11 10 10 11 11 10 10 13 15 14 19 24 23 21 21 21 22 22 21 21 22 24 28 30 30 29 30 28 27 26 26 24 23 21 21 20 14
13 15 13 12 11 11 10 11 11 11 11 11 12 13 13 15 19 20 21 21 20 19 20 20 20 20 22 23 27 29 29 28 30 29 29 28 28 26 23 24 22 19 17
13 11 12 11 11 10 10 11 10 10 10 11 12 13 16 15 16 17 17 17 17 18 19 19 19 21 22 23 26 29 29 29 30 32 31 31 30 28 27 24 22 22 14
13 12 10 10 10 9 9 10 10 10 10 10 10 12 17 14 14 14 14 15 15 16 16 17 18 20 22 23 25 28 29 31 32 34 34 32 30 29 28 26 25 19 17
14 12 11 10 9 10 10 10 9 10 10 10 10 11 12 13 12 13 14 14 15 15 16 16 18 20 22 22 22 25 28 32 33 34 34 33 31 32 29 26 25 22 16
12 11 10 10 9 9 9 9 10 10 9 9 9 10 10 10 11 13 13 13 14 14 16 16 18 20 22 23 24 24 25 30 28 31 33 31 31 31 29 26 26 22 22
12 10 10 9 9 9 9 9 8 8 8 8 8 8 9 9 11 12 13 14 14 15 16 16 18 19 22 22 25 27 29 29 29 30 32 34 34 32 31 26 27 23 23
10 10 10 10 9 8 8 8 7 7 6 7 7 7 8 9 10 11 12 14 15 14 15 16 19 20 22 23 27 30 32 31 30 32 27 32 36 34 34 30 29 27 25
Wind_Direction
176 169 169 156 162 162 158 158 160 164 155 156 155 157 150 122 101 60 44 25 24 18 11 6 355 336 317 318 320 309 305 301 302 311 319 320 320 321 320 323 321 319 317
156 151 151 156 159 159 158 158 161 146 143 142 146 138 122 105 75 53 33 27 26 14 10 10 360 329 313 308 311 304 307 309 314 312 315 319 322 326 320 320 322 322 317
139 146 147 150 152 145 142 143 140 132 131 129 126 115 95 69 54 52 43 30 18 19 10 360 348 320 317 309 298 303 312 317 320 315 311 317 322 326 323 320 324 322 318
111 118 126 134 135 133 131 129 121 118 110 104 94 87 78 60 45 33 20 15 15 8 359 346 323 312 307 300 300 308 318 320 323 317 314 323 329 332 323 323 320 324 317
99 90 81 82 119 124 120 112 115 102 91 90 84 74 75 54 31 25 11 1 359 340 344 322 311 306 299 297 293 312 321 319 321 314 314 325 329 330 329 323 312 316 317
89 96 106 103 105 110 115 116 102 95 90 91 91 83 65 43 28 14 3 341 335 337 335 325 318 313 313 318 309 312 306 307 300 311 314 318 316 320 319 315 310 316 323
118 110 112 109 109 103 104 100 93 89 93 87 81 77 70 43 10 355 341 337 337 331 330 334 325 317 334 323 321 316 316 315 302 305 311 314 309 318 316 311 309 307 299
107 117 116 117 111 104 103 98 90 85 88 89 89 78 57 24 3 357 1 349 353 337 345 335 324 334 341 336 325 320 316 321 324 326 317 311 314 316 311 304 304 303 297
101 103 108 109 103 104 86 85 88 102 104 97 79 60 39 20 11 15 15 359 359 357 357 347 356 355 339 341 330 321 321 331 331 329 325 323 328 319 316 312 306 311 306
93 101 106 102 94 91 84 87 100 106 85 73 66 50 37 31 19 13 9 357 348 351 355 357 348 351 347 345 337 332 329 333 332 330 331 330 329 326 321 312 306 298 296
104 107 106 104 107 102 99 92 80 71 74 67 61 50 41 35 24 26 21 14 360 355 358 357 355 349 353 353 356 344 332 328 328 330 327 325 328 328 322 319 308 294 285
112 104 102 101 100 102 94 78 72 68 64 59 54 47 34 24 16 17 22 23 16 5 4 359 350 356 1 4 360 350 352 350 339 335 330 329 330 325 321 318 315 305 290
117 110 106 107 106 99 90 81 73 63 61 55 49 41 24 13 7 6 7 9 10 11 359 352 353 359 2 360 358 5 2 355 345 340 332 327 324 320 322 321 325 323 313
118 111 105 104 97 89 81 73 66 57 52 45 38 29 20 16 12 7 4 4 3 359 356 349 353 1 3 2 6 5 0 352 346 335 328 323 322 321 320 326 322 329 324
114 110 112 107 100 90 76 69 67 57 55 44 32 34 24 23 13 13 11 8 1 355 355 360 7 6 5 6 4 358 354 352 346 339 331 325 323 324 323 334 328 324 300
114 108 109 109 104 98 96 81 71 72 64 60 55 54 40 32 22 16 12 15 19 20 16 14 12 8 8 4 359 348 347 344 341 336 330 326 325 324 322 327 325 319 311
114 114 110 104 100 94 90 89 89 75 60 59 58 50 42 28 18 14 22 31 21 26 25 17 12 8 2 358 350 344 339 337 335 333 328 326 326 323 324 321 324 323 325
105 104 98 93 92 91 86 78 70 61 55 50 39 41 34 29 25 26 37 29 23 23 21 16 11 5 359 350 346 342 337 335 335 334 332 332 331 327 324 327 328 326 322
109 105 102 97 92 92 84 77 71 64 58 52 43 31 21 26 30 32 33 31 23 18 14 12 7 3 358 353 344 338 333 332 336 336 337 336 334 331 327 329 329 333 330
114 115 105 100 96 86 77 72 66 63 58 51 41 26 21 32 34 31 29 26 21 15 12 6 3 359 354 352 346 340 337 340 342 344 342 340 338 335 331 331 332 329 325
123 115 102 91 88 83 78 73 69 66 61 56 47 31 44 39 35 32 26 21 16 12 8 4 360 357 354 353 351 345 343 344 344 345 344 344 342 338 340 339 337 343 357
117 115 103 97 94 89 85 80 74 68 63 58 50 36 43 41 35 29 23 21 18 13 7 2 0 358 354 354 353 350 349 346 347 347 347 348 347 349 351 349 351 360 15
116 115 109 102 99 95 85 82 78 71 65 59 53 46 40 36 30 24 20 17 15 13 8 6 3 1 358 357 357 355 354 350 351 357 355 353 353 356 357 355 356 1 8
117 117 113 109 106 97 89 88 84 76 71 64 56 48 40 32 25 19 14 12 13 13 11 7 4 2 358 0 360 360 1 5 360 11 15 6 360 2 3 3 3 4 5
123 120 113 114 112 109 106 96 91 85 77 68 59 49 38 31 26 18 10 8 9 12 13 9 6 2 0 0 2 3 11 18 17 20 13 22 16 13 14 9 7 8 8
125 119 115 116 114 113 110 102 94 88 79 68 58 45 37 30 25 20 11 5 6 10 11 8 5 4 3 3 5 10 15 19 22 22 15 13 20 20 15 13 12 15 13